Terminal Aerodrome Forecast
Issued by NWS

Home | Current Version | Previous Version | Text Only | Print | Product List | Glossary On
Versions: 1 2 3 4 5 6 7 8 9 10 11 12 13 14 15
000
FTUS42 TJSJ 011739
TAFNCM
TAF
TNCM 011739Z 0118/0218 10015KT P6SM SCT017
     FM012230 09012KT P6SM SCT018 SCT030
     FM021300 09015G21KT P6SM SCT020=

USA.gov is the U.S. government's official web portal to all federal, state and local government web resources and services.